Theta_e
312 312 311 312 312 312 313 313 313 314 314 314 314 314 314 313 314 306 298 303 310 321 323 308 309 314 318 316 319 313 301 298 300 300 302 309 308 314 316 314 316 319 320 322 330
311 312 312 312 312 312 312 312 313 313 313 314 314 313 313 313 306 300 306 313 316 320 310 303 301 312 312 311 316 311 303 301 305 306 305 308 310 311 312 312 313 316 321 322 324
311 312 312 312 312 312 312 312 312 313 313 313 313 312 312 311 295 294 321 316 317 317 311 310 309 309 307 307 311 311 305 308 307 307 309 308 309 312 310 309 314 313 316 320 321
311 312 312 312 312 312 312 311 311 313 313 313 312 312 312 305 287 304 317 314 314 308 309 311 306 301 303 303 308 304 309 311 312 311 310 307 311 310 311 312 316 318 319 319 320
311 311 311 311 311 312 312 312 313 313 313 313 312 313 306 297 296 304 313 309 308 305 302 308 302 300 298 302 306 305 306 309 312 313 313 315 314 314 315 319 321 322 322 320 321
310 311 311 311 311 312 312 313 313 312 312 313 313 312 301 291 304 307 307 308 305 303 301 304 306 303 300 300 301 306 307 307 309 312 313 311 311 314 315 319 318 317 318 319 319
310 310 310 311 311 312 313 313 313 313 315 313 312 309 299 297 307 309 308 307 305 304 300 301 302 304 301 297 302 302 300 302 306 309 309 310 307 308 314 315 314 314 316 317 319
310 310 310 310 311 312 313 313 313 315 316 314 313 307 297 307 310 308 308 306 306 306 303 303 301 299 302 303 300 297 298 294 302 302 305 306 300 309 313 312 311 313 315 316 319
310 310 309 310 311 312 312 313 314 314 315 315 308 303 297 309 304 308 309 303 304 304 303 303 301 297 299 295 293 296 291 294 297 303 302 302 300 307 311 311 312 314 314 315 316
309 309 308 309 311 311 311 312 313 315 313 311 309 297 300 298 303 304 307 306 301 300 299 298 297 293 294 293 286 290 291 294 294 300 301 300 300 305 309 308 310 311 312 313 314
309 308 308 309 310 310 308 305 300 299 300 295 296 295 297 302 305 302 304 301 300 298 292 294 290 287 291 294 295 294 293 293 296 301 300 299 300 303 306 307 307 308 310 312 314
308 308 308 309 309 310 306 300 300 301 294 299 298 298 300 301 296 300 303 295 294 290 293 290 286 291 293 293 292 292 291 291 295 298 298 299 298 302 303 304 306 308 309 311 312
307 308 308 308 309 306 303 302 306 301 293 295 298 297 299 300 295 296 299 296 292 290 290 288 290 293 292 291 290 291 290 291 291 295 298 296 294 298 302 304 305 307 308 309 310
307 307 308 307 303 303 301 306 306 302 288 289 293 297 299 299 293 301 301 297 293 289 290 290 294 289 289 288 291 287 293 293 292 291 288 296 287 296 300 301 303 304 306 307 309
307 307 307 306 302 301 303 306 303 299 276 290 293 303 300 294 295 296 303 297 291 291 291 289 290 289 287 289 291 289 293 292 291 290 289 291 287 293 299 297 300 303 305 307 308
308 308 307 304 303 305 305 303 301 286 276 286 293 292 292 294 294 296 296 300 300 294 294 293 297 293 290 292 292 293 291 292 292 289 283 288 288 290 294 297 300 303 304 306 308
307 307 305 304 301 304 304 299 285 280 289 286 287 291 290 289 290 291 290 290 289 285 286 290 291 294 294 288 291 290 288 281 280 280 280 290 287 290 297 299 300 301 304 307 308
307 303 306 306 307 306 300 291 279 282 285 291 290 290 287 289 289 289 289 287 293 290 286 284 282 291 293 291 287 288 287 283 276 278 282 288 284 290 299 301 303 304 306 308 310
304 304 304 306 306 303 296 285 283 285 289 288 289 285 285 288 288 288 288 287 291 292 284 283 283 291 294 294 292 287 284 290 284 285 283 286 290 295 298 299 301 303 305 307 310
300 301 303 305 305 302 293 286 287 290 292 291 284 287 283 286 286 287 286 291 290 293 294 289 282 290 290 294 293 290 292 283 284 278 277 283 286 289 294 296 300 301 303 306 309
300 300 304 304 304 297 288 287 289 294 294 290 287 286 287 286 287 286 286 290 293 292 294 291 287 285 290 287 287 288 287 287 288 285 281 281 286 297 297 298 299 302 304 306 308
297 294 304 303 295 289 288 288 292 292 295 292 292 290 288 288 286 286 285 289 295 294 288 292 288 283 285 291 293 291 288 289 284 282 285 284 285 298 299 300 301 302 303 307 310
293 294 303 300 288 287 289 289 291 291 291 291 289 291 292 288 284 288 288 293 294 293 290 292 286 280 282 288 291 288 289 290 289 289 285 282 285 298 299 300 301 301 303 306 309
295 290 294 294 292 288 285 286 287 292 292 293 291 292 289 288 290 287 288 292 294 294 297 295 287 284 279 283 287 285 287 289 289 284 285 286 288 293 296 297 300 302 304 305 307
291 289 290 287 287 287 288 287 285 286 292 292 290 290 288 284 285 285 289 290 293 295 294 292 284 287 287 288 288 287 287 288 286 288 284 287 288 292 296 298 300 302 303 303 306
290 289 292 288 288 288 288 287 287 288 288 287 287 289 290 286 287 284 287 288 288 292 290 293 285 287 284 287 287 285 287 288 288 288 288 289 288 296 298 299 299 301 303 304 308
294 293 291 288 287 286 287 287 287 288 290 292 290 289 288 290 293 293 294 293 291 289 288 288 286 284 280 286 286 282 287 288 289 291 290 286 291 296 295 297 299 301 305 308 313
Wind_Speed
16 16 15 16 16 17 18 18 17 16 16 16 15 17 19 20 21 5 6 5 3 10 11 8 5 3 5 6 6 4 8 13 19 14 10 2 6 3 3 5 2 0 2 5 5
16 16 17 17 18 18 18 19 19 18 17 16 15 16 17 18 12 9 6 8 7 11 5 5 6 11 6 9 9 11 11 20 11 15 8 13 6 4 4 4 3 4 7 5 4
16 16 16 16 17 17 18 18 19 19 17 16 15 15 15 15 5 2 10 13 12 10 7 3 4 7 15 8 13 12 20 20 16 17 13 19 17 8 8 12 12 7 1 7 9
17 17 18 17 17 17 16 16 15 16 16 15 15 14 14 4 5 3 10 11 13 13 2 3 6 9 11 19 15 15 21 22 14 11 8 16 14 12 15 22 13 12 11 12 14
18 18 19 19 19 19 17 16 16 16 13 11 12 12 6 3 7 2 9 8 10 5 2 4 10 11 16 12 18 25 22 14 21 15 13 11 21 19 20 20 18 19 18 19 18
19 19 20 21 20 20 19 16 14 15 12 7 8 5 2 5 1 5 5 8 3 1 1 2 5 10 10 14 21 12 20 21 15 15 15 19 28 18 16 13 18 14 18 18 17
21 21 21 22 22 22 22 20 15 13 9 3 4 5 3 10 2 7 8 4 3 2 1 6 8 8 3 12 12 18 19 13 18 23 16 6 25 36 22 19 24 23 22 21 19
20 21 22 23 23 23 23 23 19 14 3 5 6 3 8 4 6 11 5 6 7 6 4 6 5 6 8 9 9 11 17 23 25 11 10 16 32 33 16 21 26 24 23 20 17
20 19 21 22 22 22 22 22 16 4 6 10 5 1 9 2 6 4 6 7 8 4 5 3 4 6 7 13 10 15 21 26 24 22 15 20 36 26 16 14 18 16 15 15 15
21 21 21 21 22 21 23 16 2 8 5 4 4 4 4 12 12 15 6 10 6 6 4 4 6 9 12 14 22 17 24 21 17 12 22 24 34 22 16 16 18 17 17 18 18
21 21 21 21 21 21 11 2 3 1 2 3 7 6 15 11 12 5 5 5 5 5 4 4 10 17 18 19 21 10 13 19 18 9 21 26 29 23 19 22 24 23 21 21 21
22 22 21 21 19 17 4 5 4 2 9 4 10 10 13 7 7 10 3 2 3 11 6 5 14 13 12 12 17 22 18 10 8 9 8 15 20 15 15 20 20 21 22 22 22
22 22 22 21 22 1 1 6 4 5 4 8 5 5 6 9 6 10 2 2 6 9 9 11 12 9 14 17 18 18 22 20 10 6 12 12 22 24 22 20 22 23 22 23 20
22 21 20 19 2 3 2 6 3 7 3 4 3 2 8 15 5 13 5 7 5 8 9 12 13 8 15 14 19 19 10 15 20 12 13 4 12 16 17 18 19 19 19 20 20
23 22 17 7 5 3 2 5 3 4 5 8 3 4 15 5 11 6 7 3 10 14 7 20 14 16 16 17 15 17 11 9 5 9 11 17 11 15 12 20 18 16 20 21 22
25 23 9 3 3 4 5 3 3 3 4 4 6 13 18 11 9 8 11 8 8 9 11 20 15 17 17 11 13 13 16 21 17 13 16 15 13 23 17 20 17 17 15 13 16
28 20 4 3 2 4 4 1 3 3 4 4 9 12 19 7 13 13 18 11 6 7 10 15 16 15 17 13 9 9 12 9 11 13 17 11 14 24 9 6 1 8 15 15 11
26 6 2 2 4 5 1 1 3 1 4 7 9 18 4 8 12 15 11 10 4 4 7 6 8 13 5 22 17 15 14 8 16 13 14 13 15 10 9 16 12 8 7 10 12
16 2 1 4 1 1 2 0 3 1 5 8 15 5 2 5 9 9 13 8 4 2 6 7 5 10 12 9 19 12 10 16 6 1 8 11 17 16 16 14 12 11 8 14 17
3 3 3 8 2 1 2 2 2 3 8 5 5 3 7 12 9 11 7 4 6 3 1 4 10 1 13 12 12 14 9 10 7 6 8 10 16 8 3 9 9 12 14 16 17
2 0 3 7 1 3 2 3 5 5 7 3 5 8 9 8 7 9 7 13 3 7 8 7 5 3 5 8 4 8 7 8 9 12 5 3 3 4 6 9 8 11 17 18 18
4 1 4 4 2 1 1 6 6 6 2 4 6 8 7 8 9 7 9 7 10 7 13 3 5 8 6 7 6 3 4 8 9 19 11 11 6 6 9 8 12 17 20 19 17
5 4 2 3 2 2 4 5 5 5 7 4 4 2 3 4 7 8 10 4 11 10 3 8 1 7 6 6 4 3 3 5 6 6 15 15 9 9 8 13 14 19 21 20 20
3 4 3 4 1 2 4 3 6 5 10 4 9 10 5 5 12 10 14 10 10 11 16 13 5 9 9 8 7 9 11 10 7 10 13 19 19 24 22 24 23 19 19 21 20
4 3 2 5 2 7 4 4 8 6 4 8 3 7 8 7 14 16 12 13 17 21 10 5 8 11 15 15 15 17 18 17 17 17 15 17 20 22 19 17 22 21 21 22 21
3 4 2 5 7 6 3 3 8 4 5 9 7 13 16 16 17 23 19 15 6 5 2 7 7 8 15 14 15 20 21 20 23 21 24 25 24 19 23 23 24 22 20 21 18
1 1 2 3 4 4 2 3 7 14 10 11 14 16 16 18 16 21 21 22 16 6 5 4 4 3 8 6 5 12 21 22 21 21 17 22 20 18 24 22 20 20 19 20 18
Wind_Direction
359 356 352 348 345 339 335 333 331 331 333 330 334 332 331 325 319 316 262 301 231 311 319 305 275 216 207 213 192 151 228 237 232 220 230 267 240 208 326 264 284 228 112 15 82
355 350 346 345 341 336 334 331 328 328 326 326 328 328 326 322 314 293 261 293 294 294 296 253 226 194 209 209 198 198 221 230 226 224 231 243 236 283 300 279 263 249 141 48 75
349 345 343 341 335 332 331 328 325 322 321 322 324 321 317 325 284 180 107 21 347 320 243 247 237 222 221 206 204 208 231 228 234 229 233 255 259 250 261 265 252 255 308 321 328
345 343 341 337 332 330 327 325 321 317 317 318 314 311 318 321 350 47 321 1 356 353 181 199 202 207 221 219 212 236 231 238 242 234 230 246 267 250 241 252 278 280 297 291 288
343 342 339 335 333 330 326 324 321 318 310 298 287 295 326 310 258 270 329 331 331 348 333 262 217 218 226 223 226 233 233 239 244 243 246 272 262 264 258 262 267 274 276 273 267
341 341 339 335 334 331 325 323 318 320 318 285 268 288 346 308 198 243 307 317 355 88 247 227 245 240 260 243 224 235 235 240 242 234 242 248 265 257 246 255 270 270 268 266 264
341 341 339 334 333 331 326 325 323 322 316 238 202 187 234 248 271 301 302 259 195 182 284 230 248 252 309 252 253 253 254 241 233 232 240 226 276 252 249 247 257 262 260 262 265
339 340 338 334 332 330 324 317 318 322 268 156 153 144 260 259 290 286 257 268 233 214 214 229 244 286 233 300 256 231 235 243 231 202 226 191 253 259 261 258 257 258 266 274 268
339 338 336 331 328 326 318 306 309 307 121 134 121 124 286 263 302 323 211 278 289 192 207 183 158 222 213 231 245 223 235 227 238 217 214 198 246 252 257 262 261 263 269 271 275
338 337 336 331 327 324 316 311 43 119 133 163 123 256 244 332 325 311 258 254 274 279 143 173 199 223 217 208 220 231 235 248 240 220 218 222 247 250 246 268 263 268 272 273 271
337 336 333 329 328 327 332 64 1 227 23 281 288 275 282 296 298 276 303 266 251 244 241 208 225 223 231 233 249 256 281 251 248 222 223 228 247 248 244 251 260 262 265 268 268
338 334 333 329 328 318 309 69 89 315 310 283 258 247 268 265 285 323 309 294 273 256 174 217 251 264 255 251 242 247 250 259 266 244 245 248 256 258 257 256 259 265 265 268 275
336 333 332 330 323 333 28 150 125 151 250 295 252 261 307 316 283 314 289 290 266 259 243 246 266 284 240 243 242 236 241 235 254 289 271 270 269 263 254 250 257 258 262 266 265
332 331 327 329 227 342 217 145 288 194 270 288 325 137 346 321 242 324 204 312 239 266 256 245 249 239 242 246 239 242 224 234 235 245 246 228 278 258 256 249 244 256 260 262 265
331 328 320 314 317 226 67 322 145 202 299 339 312 342 331 327 299 344 326 308 275 272 266 269 276 249 244 232 224 242 222 203 205 241 266 249 275 267 248 259 262 264 262 266 266
333 331 315 131 196 263 306 306 198 220 263 344 326 336 339 336 315 307 328 310 279 268 251 264 267 251 227 250 213 228 221 221 238 247 248 240 238 276 258 262 266 261 265 286 288
335 335 171 152 16 328 313 162 243 227 352 345 329 332 328 307 326 327 327 325 319 298 290 304 268 236 232 231 221 215 177 179 207 212 237 213 214 245 8 150 170 304 296 310 307
335 344 185 229 295 321 331 221 245 12 294 318 325 315 304 351 334 330 315 324 68 28 289 317 294 351 205 223 223 222 208 214 213 207 224 191 228 236 233 265 274 289 289 312 323
334 4 71 348 5 118 317 81 213 237 310 317 320 311 310 332 326 327 317 295 339 27 347 306 274 277 291 267 218 192 214 235 299 315 221 193 245 271 262 278 283 305 325 345 340
351 335 27 328 348 51 61 293 259 241 320 300 286 266 294 322 324 335 314 284 327 9 269 297 294 214 292 290 219 212 202 199 208 222 216 207 236 240 175 150 50 22 1 338 331
20 105 13 339 268 48 57 290 296 299 335 271 276 283 292 309 309 306 270 291 287 341 319 291 263 315 321 342 314 181 205 225 245 238 274 249 170 227 190 88 33 2 354 344 340
343 286 8 321 51 45 357 321 310 291 312 281 263 271 270 305 294 274 263 275 323 327 321 333 295 289 272 194 250 312 287 280 238 221 241 277 282 90 113 60 6 352 349 347 342
349 296 345 314 56 4 327 298 272 283 318 300 294 279 314 278 301 256 281 288 340 308 305 354 288 314 308 150 162 271 297 260 265 269 252 243 235 230 285 303 336 338 339 339 340
335 332 3 45 41 18 329 327 318 326 299 267 297 286 279 276 286 280 281 294 302 296 293 318 244 254 270 304 316 292 292 285 286 258 259 245 261 273 288 300 314 323 329 327 332
9 42 9 322 6 320 302 281 287 307 296 315 264 238 313 281 302 268 269 299 290 287 277 262 259 240 254 268 283 280 280 279 267 257 257 264 252 265 281 302 304 310 311 315 320
3 352 3 294 296 298 275 248 291 333 309 296 259 295 297 290 283 287 290 282 245 302 240 234 260 280 267 263 258 269 269 265 258 259 258 261 265 274 280 281 281 292 302 303 306
143 182 214 280 304 307 281 318 306 323 290 249 296 297 285 286 294 286 280 277 257 238 246 242 234 269 262 246 285 269 249 243 254 253 258 252 257 259 270 270 280 290 296 293 297